NKS680 KFLL-KFAY

Flight info

Callsign NKS680
Flight time 1h 33m
Altitude 29000
Route AGERS1 DUCEN Q87 JROSS
Aircraft MD82/M-SDFGIRWY/C

Departure

Time 2026-05-06 00:32
Airport Fort Lauderdale Hollywood International Airport (KFLL)

Arrival

Time 2026-05-06 02:06
Airport Fayetteville Regional Airport - Grannis Field (KFAY)
Time Latitude Longitude Altitude Speed Heading
2026-05-05 23:50 26.06896 -80.14590 16 ft 0 kts 35°
2026-05-06 00:20 26.06886 -80.14597 16 ft 4 kts 35°
2026-05-06 00:20 26.06868 -80.14611 18 ft 4 kts 20°
2026-05-06 00:21 26.06846 -80.14612 20 ft 4 kts 336°
2026-05-06 00:21 26.06825 -80.14596 20 ft 4 kts 315°
2026-05-06 00:21 26.06817 -80.14587 19 ft 1 kts 315°
2026-05-06 00:21 26.06816 -80.14586 19 ft 0 kts 315°
2026-05-06 00:26 26.06834 -80.14606 16 ft 11 kts 315°
2026-05-06 00:27 26.06900 -80.14671 16 ft 13 kts 325°
2026-05-06 00:27 26.06941 -80.14766 16 ft 17 kts 251°
2026-05-06 00:27 26.06912 -80.14895 16 ft 17 kts 270°
2026-05-06 00:27 26.06912 -80.15028 16 ft 17 kts 270°
2026-05-06 00:28 26.06864 -80.15125 16 ft 16 kts 187°
2026-05-06 00:28 26.06780 -80.15170 17 ft 14 kts 253°
2026-05-06 00:28 26.06770 -80.15274 17 ft 14 kts 270°
2026-05-06 00:28 26.06752 -80.15373 18 ft 13 kts 221°
2026-05-06 00:29 26.06698 -80.15439 19 ft 12 kts 265°
2026-05-06 00:29 26.06696 -80.15571 17 ft 22 kts 271°
2026-05-06 00:29 26.06699 -80.15738 16 ft 20 kts 270°
2026-05-06 00:29 26.06686 -80.15807 17 ft 0 kts 222°
2026-05-06 00:31 26.06652 -80.15818 17 ft 12 kts 186°
2026-05-06 00:31 26.06590 -80.15757 20 ft 14 kts 94°
2026-05-06 00:31 26.06589 -80.15593 23 ft 34 kts 90°
2026-05-06 00:31 26.06589 -80.15127 21 ft 89 kts 86°
2026-05-06 00:32 26.06581 -80.14257 58 ft 133 kts 90°
2026-05-06 00:32 26.06566 -80.13123 223 ft 156 kts 92°
2026-05-06 00:32 26.06531 -80.11954 896 ft 143 kts 88°
2026-05-06 00:32 26.06672 -80.10860 1467 ft 151 kts 72°
2026-05-06 00:33 26.07094 -80.09695 1898 ft 168 kts 61°
2026-05-06 00:33 26.07719 -80.08581 2505 ft 175 kts 56°
2026-05-06 00:33 26.08438 -80.07445 3028 ft 184 kts 51°
2026-05-06 00:33 26.09386 -80.06360 3283 ft 209 kts 34°
2026-05-06 00:34 26.10766 -80.05689 3669 ft 226 kts 12°
2026-05-06 00:34 26.12366 -80.05316 4041 ft 251 kts 11°
2026-05-06 00:34 26.14174 -80.04895 4061 ft 270 kts 10°
2026-05-06 00:34 26.16015 -80.04524 4007 ft 267 kts
2026-05-06 00:35 26.17831 -80.04721 3911 ft 265 kts 338°
2026-05-06 00:35 26.19392 -80.05737 4061 ft 260 kts 325°
2026-05-06 00:35 26.20920 -80.06869 4011 ft 266 kts 326°
2026-05-06 00:35 26.22496 -80.08000 3900 ft 281 kts 327°
2026-05-06 00:36 26.23989 -80.09392 4809 ft 271 kts 303°
2026-05-06 00:36 26.24660 -80.11234 6184 ft 251 kts 281°
2026-05-06 00:36 26.24997 -80.13133 6986 ft 252 kts 281°
2026-05-06 00:36 26.25349 -80.15100 7382 ft 268 kts 281°
2026-05-06 00:37 26.25978 -80.17052 8073 ft 267 kts 303°
2026-05-06 00:37 26.27296 -80.18527 8691 ft 277 kts 323°
2026-05-06 00:37 26.29032 -80.19539 9270 ft 284 kts 337°
2026-05-06 00:37 26.30910 -80.20196 10041 ft 283 kts 342°
2026-05-06 00:38 26.32811 -80.20777 10710 ft 283 kts 341°
2026-05-06 00:38 26.34703 -80.21403 11329 ft 284 kts 340°
2026-05-06 00:38 26.36597 -80.22079 11837 ft 289 kts 339°
2026-05-06 00:38 26.38538 -80.22825 12078 ft 303 kts 338°
2026-05-06 00:39 26.40665 -80.23356 12149 ft 325 kts 351°
2026-05-06 00:39 26.42955 -80.23591 12509 ft 334 kts 353°
2026-05-06 00:39 26.45343 -80.23770 12551 ft 355 kts 354°
2026-05-06 00:39 26.47833 -80.23905 13016 ft 359 kts 355°
2026-05-06 00:40 26.50337 -80.24052 13572 ft 362 kts 354°
2026-05-06 00:40 26.52858 -80.24242 14126 ft 364 kts 353°
2026-05-06 00:40 26.55387 -80.24470 14627 ft 366 kts 352°
2026-05-06 00:40 26.57894 -80.24755 15107 ft 368 kts 350°
2026-05-06 00:41 26.60432 -80.25164 15637 ft 370 kts 348°
2026-05-06 00:41 26.62976 -80.25627 16140 ft 372 kts 348°
2026-05-06 00:41 26.65538 -80.26103 16644 ft 374 kts 348°
2026-05-06 00:41 26.68118 -80.26574 17125 ft 377 kts 348°
2026-05-06 00:42 26.70710 -80.27068 17607 ft 378 kts 344°
2026-05-06 00:42 26.71573 -80.27315 17759 ft 378 kts 341°
2026-05-06 00:42 26.72267 -80.27556 17900 ft 378 kts 339°
2026-05-06 00:42 26.74458 -80.28450 18345 ft 379 kts 336°
2026-05-06 00:43 26.76918 -80.29539 18738 ft 381 kts 336°
2026-05-06 00:43 26.79384 -80.30636 19153 ft 382 kts 336°
2026-05-06 00:43 26.81862 -80.31728 19573 ft 383 kts 336°
2026-05-06 00:43 26.84354 -80.32812 19987 ft 385 kts 336°
2026-05-06 00:44 26.86857 -80.33883 20388 ft 386 kts 336°
2026-05-06 00:44 26.89382 -80.34950 20740 ft 389 kts 336°
2026-05-06 00:44 26.91919 -80.36012 21122 ft 390 kts 336°
2026-05-06 00:44 26.94469 -80.37073 21495 ft 392 kts 336°
2026-05-06 00:45 26.97032 -80.38121 21886 ft 393 kts 336°
2026-05-06 00:45 26.99616 -80.39157 22260 ft 395 kts 337°
2026-05-06 00:45 27.02213 -80.40191 22599 ft 397 kts 336°
2026-05-06 00:45 27.04821 -80.41231 22938 ft 399 kts 336°
2026-05-06 00:46 27.07439 -80.42277 23289 ft 400 kts 336°
2026-05-06 00:46 27.10062 -80.43340 23653 ft 401 kts 335°
2026-05-06 00:46 27.12673 -80.44461 23952 ft 402 kts 335°
2026-05-06 00:46 27.15268 -80.45618 24271 ft 402 kts 334°
2026-05-06 00:47 27.17866 -80.46789 24583 ft 402 kts 334°
2026-05-06 00:47 27.20467 -80.47959 24871 ft 403 kts 334°
2026-05-06 00:47 27.23077 -80.49127 25164 ft 404 kts 335°
2026-05-06 00:47 27.25695 -80.50291 25471 ft 405 kts 335°
2026-05-06 00:48 27.28314 -80.51451 25796 ft 405 kts 335°
2026-05-06 00:48 27.30903 -80.52595 26109 ft 406 kts 335°
2026-05-06 00:48 27.33534 -80.53756 26393 ft 407 kts 335°
2026-05-06 00:48 27.36169 -80.54918 26695 ft 407 kts 335°
2026-05-06 00:49 27.38825 -80.56043 26964 ft 408 kts 336°
2026-05-06 00:49 27.41503 -80.57112 27240 ft 409 kts 337°
2026-05-06 00:49 27.44198 -80.58162 27513 ft 410 kts 338°
2026-05-06 00:49 27.46899 -80.59211 27770 ft 411 kts 338°
2026-05-06 00:50 27.49599 -80.60264 28052 ft 411 kts 338°
2026-05-06 00:50 27.52074 -80.61237 28277 ft 412 kts 337°
2026-05-06 00:50 27.54780 -80.62307 28522 ft 413 kts 337°
2026-05-06 00:50 27.57490 -80.63384 28774 ft 413 kts 337°
2026-05-06 00:51 27.60203 -80.64467 29011 ft 414 kts 337°
2026-05-06 00:51 27.62919 -80.65552 29258 ft 415 kts 337°
2026-05-06 00:51 27.65638 -80.66639 29499 ft 415 kts 337°
2026-05-06 00:51 27.68363 -80.67729 29735 ft 416 kts 337°
2026-05-06 00:52 27.71094 -80.68821 29962 ft 416 kts 337°
2026-05-06 00:52 27.73829 -80.69914 30175 ft 417 kts 337°
2026-05-06 00:52 27.76566 -80.71007 30371 ft 417 kts 337°
2026-05-06 00:52 27.79303 -80.72101 30534 ft 418 kts 337°
2026-05-06 00:53 27.82048 -80.73201 30727 ft 418 kts 337°
2026-05-06 00:53 27.84790 -80.74300 30883 ft 419 kts 337°
2026-05-06 00:53 27.87537 -80.75402 31083 ft 419 kts 337°
2026-05-06 00:53 27.90288 -80.76505 31222 ft 420 kts 337°
2026-05-06 00:54 27.93041 -80.77609 31413 ft 420 kts 337°
2026-05-06 00:54 27.95796 -80.78715 31556 ft 421 kts 337°
2026-05-06 00:54 27.98558 -80.79823 31728 ft 421 kts 337°
2026-05-06 00:54 28.01317 -80.80930 31874 ft 421 kts 337°
2026-05-06 00:55 28.04083 -80.82041 32025 ft 422 kts 337°
2026-05-06 00:55 28.06849 -80.83153 32189 ft 422 kts 337°
2026-05-06 00:55 28.09617 -80.84267 32322 ft 422 kts 337°
2026-05-06 00:55 28.12388 -80.85381 32453 ft 423 kts 337°
2026-05-06 00:56 28.15166 -80.86499 32587 ft 424 kts 337°
2026-05-06 00:56 28.17943 -80.87618 32724 ft 424 kts 336°
2026-05-06 00:56 28.20725 -80.88743 32849 ft 424 kts 336°
2026-05-06 00:56 28.23471 -80.89853 32971 ft 425 kts 336°
2026-05-06 00:57 28.26255 -80.90979 33071 ft 425 kts 336°
2026-05-06 00:57 28.31826 -80.93234 33081 ft 425 kts 336°
2026-05-06 00:58 28.37396 -80.95484 33050 ft 425 kts 336°
2026-05-06 00:58 28.42964 -80.97733 33042 ft 425 kts 336°
2026-05-06 00:59 28.48528 -80.99985 33036 ft 424 kts 336°
2026-05-06 00:59 28.54087 -81.02242 33041 ft 424 kts 336°
2026-05-06 01:00 28.59640 -81.04499 33038 ft 424 kts 336°
2026-05-06 01:00 28.65191 -81.06760 33023 ft 423 kts 336°
2026-05-06 01:01 28.70741 -81.09017 33012 ft 423 kts 336°
2026-05-06 01:01 28.76283 -81.11274 33035 ft 423 kts 336°
2026-05-06 01:02 28.81819 -81.13534 33000 ft 423 kts 336°
2026-05-06 01:02 28.87118 -81.15696 32998 ft 422 kts 336°
2026-05-06 01:03 28.92613 -81.17942 32982 ft 422 kts 336°
2026-05-06 01:03 28.98140 -81.20200 32994 ft 422 kts 336°
2026-05-06 01:04 29.03668 -81.22456 32987 ft 422 kts 336°
2026-05-06 01:04 29.09187 -81.24719 32985 ft 421 kts 336°
2026-05-06 01:05 29.13771 -81.26603 32963 ft 421 kts 336°
2026-05-06 01:05 29.19274 -81.28867 32940 ft 421 kts 336°
2026-05-06 01:06 29.24779 -81.31134 32895 ft 421 kts 336°
2026-05-06 01:06 29.30506 -81.32666 32891 ft 431 kts 350°
2026-05-06 01:07 29.36512 -81.32942 32870 ft 432 kts 352°
2026-05-06 01:07 29.42522 -81.33177 32877 ft 431 kts 351°
2026-05-06 01:08 29.48515 -81.33488 32862 ft 431 kts 351°
2026-05-06 01:08 29.54251 -81.33837 32856 ft 430 kts 351°
2026-05-06 01:09 29.60233 -81.34208 32854 ft 430 kts 351°
2026-05-06 01:09 29.66211 -81.34571 32849 ft 430 kts 351°
2026-05-06 01:10 29.72189 -81.34928 32848 ft 430 kts 351°
2026-05-06 01:10 29.78165 -81.35286 32837 ft 430 kts 351°
2026-05-06 01:11 29.84136 -81.35642 32838 ft 430 kts 351°
2026-05-06 01:11 29.90105 -81.35998 32831 ft 429 kts 351°
2026-05-06 01:12 29.96075 -81.36355 32819 ft 430 kts 351°
2026-05-06 01:12 30.02040 -81.36712 32809 ft 429 kts 351°
2026-05-06 01:13 30.08006 -81.37068 32804 ft 429 kts 351°
2026-05-06 01:13 30.13972 -81.37425 32804 ft 429 kts 351°
2026-05-06 01:14 30.22914 -81.37961 32784 ft 429 kts 351°
2026-05-06 01:14 30.28624 -81.38305 32795 ft 428 kts 351°
2026-05-06 01:15 30.34545 -81.38661 32778 ft 429 kts 351°
2026-05-06 01:15 30.40504 -81.39018 32776 ft 429 kts 351°
2026-05-06 01:16 30.46462 -81.39375 32768 ft 429 kts 351°
2026-05-06 01:16 30.52410 -81.39693 32563 ft 428 kts 351°
2026-05-06 01:17 30.55383 -81.39847 32421 ft 428 kts 351°
2026-05-06 01:17 30.58354 -81.40001 32317 ft 427 kts 351°
2026-05-06 01:17 30.64278 -81.40312 32129 ft 425 kts 351°
2026-05-06 01:18 30.67233 -81.40468 32027 ft 425 kts 351°
2026-05-06 01:18 30.70183 -81.40625 31928 ft 424 kts 351°
2026-05-06 01:18 30.76069 -81.40939 31739 ft 423 kts 351°
2026-05-06 01:19 30.81949 -81.41251 31970 ft 418 kts 351°
2026-05-06 01:19 30.84815 -81.41394 32481 ft 407 kts 351°
2026-05-06 01:19 30.87601 -81.41530 33078 ft 395 kts 350°
2026-05-06 01:20 30.90311 -81.41664 33600 ft 386 kts 349°
2026-05-06 01:20 30.92980 -81.41806 33845 ft 383 kts 349°
2026-05-06 01:20 30.95639 -81.41957 33959 ft 382 kts 349°
2026-05-06 01:20 30.98292 -81.42110 34012 ft 381 kts 349°
2026-05-06 01:21 31.03576 -81.42407 34046 ft 379 kts 349°
2026-05-06 01:21 31.08805 -81.42691 34058 ft 379 kts 349°
2026-05-06 01:22 31.14069 -81.42972 34055 ft 379 kts 349°
2026-05-06 01:22 31.19338 -81.43253 34068 ft 379 kts 349°
2026-05-06 01:23 31.24627 -81.43450 34079 ft 387 kts 358°
2026-05-06 01:23 31.27291 -81.42645 34098 ft 407 kts 12°
2026-05-06 01:23 31.29894 -81.41270 34101 ft 413 kts 15°
2026-05-06 01:24 31.35073 -81.38310 34090 ft 414 kts 15°
2026-05-06 01:24 31.40251 -81.35366 34073 ft 413 kts 15°
2026-05-06 01:25 31.45439 -81.32517 34067 ft 411 kts 14°
2026-05-06 01:25 31.50640 -81.29715 34066 ft 411 kts 14°
2026-05-06 01:26 31.55847 -81.26910 34062 ft 412 kts 14°
2026-05-06 01:26 31.61050 -81.24090 34060 ft 412 kts 14°
2026-05-06 01:27 31.66029 -81.21380 34055 ft 412 kts 14°
2026-05-06 01:27 31.71230 -81.18538 34053 ft 412 kts 15°
2026-05-06 01:28 31.76427 -81.15690 34047 ft 412 kts 14°
2026-05-06 01:28 31.81626 -81.12847 34044 ft 412 kts 15°
2026-05-06 01:29 31.86791 -81.10020 34044 ft 412 kts 14°
2026-05-06 01:29 31.91990 -81.07172 34043 ft 412 kts 15°
2026-05-06 01:30 31.97188 -81.04319 34042 ft 412 kts 15°
2026-05-06 01:30 32.02388 -81.01451 34047 ft 413 kts 15°
2026-05-06 01:31 32.07575 -80.98544 34042 ft 413 kts 15°
2026-05-06 01:31 32.12763 -80.95629 34048 ft 413 kts 15°
2026-05-06 01:32 32.17955 -80.92718 34088 ft 413 kts 15°
2026-05-06 01:32 32.23147 -80.89809 34094 ft 413 kts 15°
2026-05-06 01:33 32.28342 -80.86893 34097 ft 413 kts 15°
2026-05-06 01:33 32.33540 -80.83973 34096 ft 414 kts 15°
2026-05-06 01:34 32.38739 -80.81047 34085 ft 414 kts 15°
2026-05-06 01:34 32.43935 -80.78113 34091 ft 414 kts 15°
2026-05-06 01:35 32.49099 -80.75195 34090 ft 414 kts 15°
2026-05-06 01:35 32.54303 -80.72255 34088 ft 414 kts 15°
2026-05-06 01:36 32.59510 -80.69309 34085 ft 415 kts 15°
2026-05-06 01:36 32.64719 -80.66359 34088 ft 415 kts 15°
2026-05-06 01:37 32.69927 -80.63404 34088 ft 415 kts 15°
2026-05-06 01:37 32.74789 -80.60162 34092 ft 424 kts 22°
2026-05-06 01:38 32.79754 -80.56343 34096 ft 425 kts 23°
2026-05-06 01:38 32.84733 -80.52536 34099 ft 425 kts 22°
2026-05-06 01:39 32.89740 -80.48784 34098 ft 425 kts 22°
2026-05-06 01:39 32.94749 -80.45063 34092 ft 426 kts 22°
2026-05-06 01:40 32.99776 -80.41324 34072 ft 426 kts 22°
2026-05-06 01:40 33.04802 -80.37571 34072 ft 427 kts 22°
2026-05-06 01:41 33.09836 -80.33796 34069 ft 427 kts 22°
2026-05-06 01:41 33.14864 -80.30011 34077 ft 428 kts 22°
2026-05-06 01:42 33.19899 -80.26224 34076 ft 428 kts 22°
2026-05-06 01:42 33.24937 -80.22436 34084 ft 428 kts 22°
2026-05-06 01:43 33.29944 -80.18666 34082 ft 429 kts 22°
2026-05-06 01:43 33.34991 -80.14861 34087 ft 429 kts 22°
2026-05-06 01:44 33.40042 -80.11047 34079 ft 430 kts 22°
2026-05-06 01:44 33.45095 -80.07223 34086 ft 430 kts 22°
2026-05-06 01:45 33.50151 -80.03381 34083 ft 430 kts 22°
2026-05-06 01:45 33.55210 -79.99538 34079 ft 431 kts 22°
2026-05-06 01:46 33.60277 -79.95689 34081 ft 431 kts 22°
2026-05-06 01:46 33.65346 -79.91837 34090 ft 431 kts 22°
2026-05-06 01:47 33.70412 -79.87978 34090 ft 431 kts 22°
2026-05-06 01:47 33.75475 -79.84118 34091 ft 431 kts 23°
2026-05-06 01:48 33.80535 -79.80249 34088 ft 431 kts 23°
2026-05-06 01:48 33.85587 -79.76372 34083 ft 431 kts 23°
2026-05-06 01:49 33.88131 -79.74425 33728 ft 438 kts 23°
2026-05-06 01:49 33.90748 -79.72440 32942 ft 448 kts 24°
2026-05-06 01:49 33.93099 -79.70651 32273 ft 448 kts 24°
2026-05-06 01:49 33.95731 -79.68635 31525 ft 448 kts 25°
2026-05-06 01:50 33.98367 -79.66609 30810 ft 451 kts 26°
2026-05-06 01:50 34.01024 -79.64567 30119 ft 455 kts 26°
2026-05-06 01:50 34.03705 -79.62502 29309 ft 459 kts 26°
2026-05-06 01:50 34.06404 -79.60417 28516 ft 462 kts 27°
2026-05-06 01:51 34.09118 -79.58319 27760 ft 465 kts 27°
2026-05-06 01:51 34.11814 -79.56234 27023 ft 468 kts 27°
2026-05-06 01:51 34.14599 -79.54081 26281 ft 470 kts 27°
2026-05-06 01:51 34.17327 -79.51970 25609 ft 473 kts 28°
2026-05-06 01:52 34.20145 -79.49787 24903 ft 476 kts 28°
2026-05-06 01:52 34.22906 -79.47648 24236 ft 479 kts 28°
2026-05-06 01:52 34.25717 -79.45469 23560 ft 481 kts 28°
2026-05-06 01:52 34.28512 -79.43302 22835 ft 473 kts 28°
2026-05-06 01:53 34.31251 -79.41173 22189 ft 463 kts 29°
2026-05-06 01:53 34.33974 -79.39056 21548 ft 455 kts 28°
2026-05-06 01:53 34.36572 -79.37040 20937 ft 447 kts 28°
2026-05-06 01:53 34.39177 -79.35018 20333 ft 440 kts 29°
2026-05-06 01:54 34.41738 -79.33033 19731 ft 434 kts 29°
2026-05-06 01:54 34.44264 -79.31075 19147 ft 428 kts 29°
2026-05-06 01:54 34.46774 -79.29180 18572 ft 421 kts 24°
2026-05-06 01:54 34.49471 -79.27982 17963 ft 409 kts 10°
2026-05-06 01:55 34.52233 -79.27281 17440 ft 401 kts
2026-05-06 01:55 34.54930 -79.26658 17203 ft 388 kts
2026-05-06 01:55 34.57532 -79.26035 16959 ft 376 kts
2026-05-06 01:55 34.60102 -79.25400 16236 ft 379 kts
2026-05-06 01:56 34.62690 -79.24731 15506 ft 382 kts
2026-05-06 01:56 34.65295 -79.24027 14805 ft 385 kts
2026-05-06 01:56 34.67911 -79.23294 14120 ft 387 kts
2026-05-06 01:56 34.70543 -79.22538 13384 ft 388 kts 10°
2026-05-06 01:57 34.73174 -79.21779 12632 ft 390 kts 10°
2026-05-06 01:57 34.75820 -79.21022 11904 ft 391 kts 10°
2026-05-06 01:57 34.78467 -79.20275 11177 ft 391 kts 10°
2026-05-06 01:57 34.81118 -79.19533 10561 ft 389 kts 11°
2026-05-06 01:58 34.83720 -79.18802 10283 ft 378 kts 11°
2026-05-06 01:58 34.86229 -79.18091 10129 ft 362 kts 11°
2026-05-06 01:58 34.88595 -79.17417 10059 ft 330 kts 11°
2026-05-06 01:58 34.90714 -79.16764 10017 ft 302 kts 18°
2026-05-06 01:59 34.92428 -79.15486 9733 ft 284 kts 46°
2026-05-06 01:59 34.93514 -79.13552 9310 ft 272 kts 62°
2026-05-06 01:59 34.94346 -79.11455 8489 ft 275 kts 68°
2026-05-06 01:59 34.95035 -79.09292 7764 ft 270 kts 73°
2026-05-06 02:00 34.95594 -79.07173 7063 ft 265 kts 76°
2026-05-06 02:00 34.96108 -79.05040 6573 ft 256 kts 77°
2026-05-06 02:00 34.96752 -79.03101 6290 ft 245 kts 53°
2026-05-06 02:00 34.98092 -79.01988 5922 ft 232 kts
2026-05-06 02:01 34.99616 -79.02055 5679 ft 212 kts 346°
2026-05-06 02:01 35.01033 -79.02383 5416 ft 205 kts 345°
2026-05-06 02:01 35.02442 -79.02713 4900 ft 210 kts 347°
2026-05-06 02:01 35.03883 -79.02447 4377 ft 212 kts 31°
2026-05-06 02:02 35.04741 -79.01099 3836 ft 202 kts 81°
2026-05-06 02:02 35.04809 -78.99458 3346 ft 191 kts 107°
2026-05-06 02:02 35.04224 -78.98152 2787 ft 168 kts 152°
2026-05-06 02:02 35.03209 -78.97652 2569 ft 153 kts 168°
2026-05-06 02:03 35.02205 -78.97279 2302 ft 143 kts 168°
2026-05-06 02:03 35.01274 -78.96952 1849 ft 138 kts 164°
2026-05-06 02:03 35.00459 -78.96387 1548 ft 136 kts 149°
2026-05-06 02:03 34.99786 -78.95533 1108 ft 141 kts 131°
2026-05-06 02:04 34.99377 -78.94480 993 ft 139 kts 112°
2026-05-06 02:04 34.99170 -78.93664 921 ft 139 kts 114°
2026-05-06 02:04 34.98874 -78.92565 821 ft 136 kts 108°
2026-05-06 02:05 34.98793 -78.91415 706 ft 141 kts 88°
2026-05-06 02:05 34.98806 -78.90190 539 ft 146 kts 95°
2026-05-06 02:05 34.98787 -78.88966 276 ft 143 kts 95°
2026-05-06 02:05 34.98769 -78.87835 202 ft 116 kts 91°
2026-05-06 02:06 34.98763 -78.87335 190 ft 19 kts 89°
2026-05-06 02:06 34.98825 -78.87227 197 ft 17 kts
2026-05-06 02:06 34.98869 -78.87273 202 ft 6 kts 275°
2026-05-06 02:06 34.98872 -78.87327 191 ft 7 kts 272°
2026-05-06 02:07 34.98872 -78.87391 191 ft 8 kts 270°
2026-05-06 02:07 34.98873 -78.87462 191 ft 9 kts 271°
2026-05-06 02:07 34.98874 -78.87540 197 ft 10 kts 271°
2026-05-06 02:07 34.98875 -78.87625 191 ft 10 kts 271°
2026-05-06 02:08 34.98877 -78.87717 191 ft 11 kts 271°
2026-05-06 02:08 34.98878 -78.87810 191 ft 10 kts 271°
2026-05-06 02:08 34.98880 -78.87936 191 ft 19 kts 270°
2026-05-06 02:08 34.98914 -78.88107 203 ft 23 kts 300°
2026-05-06 02:09 34.98994 -78.88268 200 ft 21 kts 301°
2026-05-06 02:09 34.99062 -78.88409 196 ft 18 kts 300°
2026-05-06 02:09 34.99054 -78.88500 206 ft 10 kts 218°
2026-05-06 02:09 34.99004 -78.88539 190 ft 7 kts 212°
2026-05-06 02:10 34.98967 -78.88596 196 ft 9 kts 262°
2026-05-06 02:10 34.98967 -78.88601 197 ft 0 kts 265°
2026-05-06 02:11 34.98966 -78.88603 197 ft 2 kts 266°
2026-05-06 02:11 34.98969 -78.88645 196 ft 8 kts 293°
2026-05-06 02:12 34.99011 -78.88669 201 ft 1 kts 355°
2026-05-06 02:12 34.99012 -78.88669 201 ft 0 kts 355°
2026-05-06 02:13 34.99011 -78.88669 201 ft 0 kts 355°